Date,TemperatureHighF,TemperatureAvgF,TemperatureLowF,DewpointHighF,DewpointAvgF,DewpointLowF,HumidityHigh,HumidityAvg,HumidityLow,PressureMaxIn,PressureMinIn,WindSpeedMaxMPH,WindSpeedAvgMPH,GustSpeedMaxMPH,PrecipitationSumIn
2013-1-1,40,26,14,25,16,11,87,70,36,30.36,30.24,5,0,5,0.00
2013-1-2,46,27,12,16,12,7,85,59,24,30.32,30.16,5,0,5,0.00
2013-1-3,44,27,16,13,9,4,74,51,20,30.38,30.21,13,1,13,0.00
2013-1-4,46,28,14,12,8,-4,76,48,12,30.42,30.31,5,0,5,0.00
2013-1-5,53,30,14,15,9,-1,71,46,11,30.45,30.31,4,0,4,0.00
2013-1-6,53,36,23,18,14,10,67,44,18,30.32,29.93,23,4,23,0.00
2013-1-7,52,35,23,23,17,13,76,50,24,30.03,29.89,8,0,8,0.00
2013-1-8,59,38,21,22,15,8,68,45,16,30.22,30.02,7,0,7,0.00
2013-1-9,62,43,26,26,19,10,78,43,13,30.27,30.03,8,1,15,0.00
2013-1-10,52,40,29,28,20,14,71,47,31,30.03,29.66,22,4,22,0.00
2013-1-11,36,26,15,19,6,-5,71,46,20,30.05,29.74,12,1,12,0.00
2013-1-12,34,21,11,17,4,0,79,50,24,30.19,30.02,8,0,8,0.00
2013-1-13,34,20,6,7,2,-2,74,48,21,30.22,30.09,7,0,7,0.00
2013-1-14,32,19,6,7,1,-4,76,48,26,30.39,30.13,12,1,12,0.00
2013-1-15,41,22,5,7,0,-4,67,41,19,30.55,30.39,7,0,7,0.00
2013-1-16,51,34,16,17,13,6,70,44,25,30.56,30.35,6,0,6,0.00
2013-1-17,56,35,18,20,16,12,78,50,21,30.44,30.29,7,0,7,0.00
2013-1-18,56,35,19,20,16,13,80,52,21,30.38,30.23,4,0,4,0.00
2013-1-19,59,36,18,21,16,12,81,50,19,30.39,30.26,5,0,5,0.00
2013-1-20,60,35,17,18,8,-9,71,40,6,30.33,30.17,5,0,5,0.00
2013-1-21,63,36,18,16,7,-7,65,36,7,30.30,30.18,9,0,9,0.00
2013-1-22,66,40,22,19,10,-2,58,35,8,30.31,30.21,4,0,4,0.00
2013-1-23,64,44,27,26,20,14,66,42,18,30.29,30.18,4,0,4,0.00
2013-1-24,53,46,41,46,37,25,95,72,38,30.20,30.09,11,1,11,0.05
2013-1-25,61,48,40,49,44,38,97,88,51,30.18,29.95,9,0,9,0.36
2013-1-26,49,47,45,48,45,43,97,94,90,29.96,29.72,11,1,11,0.72
2013-1-27,51,45,39,46,42,36,96,89,78,29.90,29.78,12,2,12,0.24
2013-1-28,42,34,23,38,28,19,94,81,50,29.98,29.74,17,2,17,0.04
2013-1-29,41,30,17,28,21,14,90,71,46,30.26,29.98,17,1,17,0.16
2013-1-30,51,39,26,29,25,21,85,61,37,30.38,30.23,8,0,8,0.00
2013-1-31,58,40,26,33,27,22,91,65,26,30.31,30.16,5,0,5,0.00
2013-2-1,63,42,25,31,24,6,85,56,12,30.27,30.16,5,0,5,0.00
2013-2-2,63,44,28,30,25,17,83,52,19,30.30,30.17,6,0,6,0.00
2013-2-3,50,44,35,42,36,28,93,74,55,30.19,29.94,10,0,10,0.04
2013-2-4,60,42,29,38,31,25,95,68,27,30.09,29.97,6,0,6,0.01
2013-2-5,64,44,28,33,29,23,87,59,23,30.05,29.91,7,0,7,0.00
2013-2-6,60,45,35,37,32,29,84,63,33,30.01,29.84,10,1,10,0.00
2013-2-7,58,42,28,34,29,24,88,63,31,30.10,29.91,16,1,16,0.00
2013-2-8,50,41,31,32,23,0,81,51,17,29.91,29.66,27,6,27,0.00
2013-2-9,34,29,25,28,25,21,92,84,74,30.03,29.65,12,1,12,0.17
2013-2-10,39,30,24,28,24,19,94,78,59,30.04,29.94,11,1,11,0.04
2013-2-11,41,28,19,30,21,15,95,77,41,30.22,30.01,8,0,8,0.03
2013-2-12,45,29,16,20,15,8,85,59,24,30.36,30.22,7,0,7,0.00
2013-2-13,54,35,20,25,20,14,82,57,27,30.31,30.16,8,0,8,0.00
2013-2-14,59,41,26,27,23,20,81,52,23,30.24,30.10,14,1,14,0.00
2013-2-15,62,41,22,25,17,8,82,45,12,30.37,30.24,7,0,7,0.00
2013-2-16,65,42,21,18,11,-8,63,34,6,30.38,30.05,12,1,12,0.00
2013-2-17,61,44,26,23,12,0,59,33,9,30.05,29.79,14,1,14,0.00
2013-2-18,61,44,26,20,15,-2,64,34,9,30.00,29.89,12,1,12,0.00
2013-2-19,56,41,29,28,17,8,61,40,16,29.91,29.56,20,4,20,0.00
2013-2-20,39,32,28,30,26,19,92,78,54,29.87,29.48,15,1,15,0.09
2013-2-21,44,33,24,32,26,20,87,77,43,30.04,29.87,16,2,16,0.00
2013-2-22,48,32,17,23,17,11,88,59,25,30.19,30.03,12,1,12,0.00
2013-2-23,53,37,23,25,20,15,85,52,26,30.19,29.81,16,2,16,0.00
2013-2-24,41,31,21,26,12,4,91,51,22,30.17,29.83,18,3,18,0.02
2013-2-25,56,36,18,14,9,-8,69,37,7,30.27,30.03,9,1,9,0.00
2013-2-26,50,35,19,18,6,-3,67,35,13,30.18,30.00,14,1,14,0.00
2013-2-27,53,37,18,10,3,-7,54,27,10,30.34,30.18,10,1,10,0.00
2013-2-28,60,38,18,10,4,-9,58,29,6,30.44,30.32,12,1,12,0.00
2013-3-1,68,46,26,25,18,8,58,36,16,30.43,30.24,8,0,8,0.00
2013-3-2,74,50,28,27,23,17,73,40,12,30.33,30.08,8,0,8,0.00
2013-3-3,65,49,34,29,23,16,65,39,19,30.08,29.83,13,1,13,0.00
2013-3-4,64,50,37,35,28,21,72,44,24,30.01,29.78,11,1,11,0.00
2013-3-5,64,47,30,34,27,20,87,52,23,30.10,29.96,20,2,20,0.00
2013-3-6,66,49,34,33,26,18,77,44,17,29.99,29.84,14,2,14,0.00
2013-3-7,62,47,30,32,24,17,74,44,18,29.87,29.79,19,3,19,0.00
2013-3-8,50,38,30,40,32,27,93,81,42,29.84,29.59,19,4,19,0.22
2013-3-9,40,35,30,35,31,28,93,87,78,30.12,29.83,13,1,13,0.15
2013-3-10,58,41,28,32,27,20,95,62,24,30.25,30.11,14,1,14,0.01
2013-3-11,68,46,26,30,24,15,80,50,16,30.20,30.01,10,1,10,0.00
2013-3-12,72,50,31,30,26,19,76,45,14,30.13,30.01,7,0,7,0.00
2013-3-13,75,54,34,34,28,19,77,43,13,30.16,30.04,7,0,7,0.00
2013-3-14,77,57,36,36,28,14,67,39,11,30.16,30.00,17,2,17,0.00
2013-3-15,79,59,42,37,27,10,63,36,9,30.02,29.81,10,1,10,0.00
2013-3-16,74,58,46,38,28,18,59,36,12,29.83,29.63,18,1,18,0.00
2013-3-17,72,56,41,31,13,-17,62,26,3,29.79,29.65,18,2,18,0.00
2013-3-18,71,57,43,30,17,6,48,23,9,29.86,29.78,18,2,18,0.00
2013-3-19,71,58,47,32,26,17,50,31,14,29.96,29.78,12,1,12,0.00
2013-3-20,68,56,43,37,29,22,60,39,20,29.96,29.72,16,2,16,0.00
2013-3-21,72,58,43,35,22,-3,62,31,6,29.72,29.57,12,1,12,0.00
2013-3-22,67,51,36,28,15,-9,54,27,9,29.74,29.59,17,1,17,0.00
2013-3-23,57,44,32,10,0,-18,34,17,4,30.01,29.73,14,2,14,0.00
2013-3-24,65,46,27,17,8,-4,42,23,9,30.05,29.87,18,1,18,0.00
2013-3-25,69,51,29,26,14,7,47,25,12,30.00,29.87,11,1,11,0.00
2013-3-26,69,57,40,28,19,14,45,24,13,29.92,29.76,17,2,17,0.00
2013-3-27,69,54,40,27,20,12,49,29,12,29.90,29.78,16,2,16,0.00
2013-3-28,68,54,39,35,24,20,58,33,17,29.99,29.89,16,2,16,0.00
2013-3-29,74,57,38,32,26,20,64,34,16,30.03,29.91,11,1,11,0.00
2013-3-30,70,55,44,34,28,22,58,38,20,29.99,29.90,10,1,14,0.00
2013-3-31,73,58,41,35,28,20,60,36,15,29.95,29.81,17,1,17,0.00
2013-4-1,66,54,40,33,25,15,71,37,15,29.85,29.79,15,2,15,0.00
2013-4-2,67,52,33,29,24,20,65,38,17,29.91,29.79,18,2,18,0.00
2013-4-3,72,55,35,33,26,16,74,38,14,30.00,29.91,9,0,9,0.00
2013-4-4,76,58,39,32,25,18,58,32,12,30.01,29.85,11,1,11,0.00
2013-4-5,74,61,44,36,27,12,60,30,10,29.85,29.71,16,2,16,0.00
2013-4-6,75,58,43,36,29,24,58,36,16,29.83,29.73,12,1,12,0.00
2013-4-7,74,56,40,36,29,24,64,38,16,29.79,29.60,13,1,13,0.00
2013-4-8,57,49,38,40,33,28,84,55,37,29.60,29.22,28,5,28,0.04
2013-4-9,52,42,35,34,28,19,88,60,34,29.89,29.40,15,3,15,0.10
2013-4-10,61,48,32,28,19,11,62,35,16,30.03,29.88,21,2,21,0.00
2013-4-11,68,52,34,29,22,16,65,35,15,29.98,29.71,11,1,11,0.00
2013-4-12,74,55,34,29,22,10,57,31,9,29.78,29.66,12,0,12,0.00
2013-4-13,74,60,40,35,24,17,53,28,13,29.75,29.55,17,2,17,0.00
2013-4-14,72,60,50,34,29,23,47,32,18,29.58,29.47,18,4,18,0.00
2013-4-15,66,56,48,40,35,31,62,45,31,29.57,29.48,22,6,22,0.00
2013-4-16,61,51,37,39,28,12,73,44,17,29.67,29.50,26,7,26,0.00
2013-4-17,54,43,32,29,17,4,78,39,14,30.06,29.67,18,3,18,0.00
2013-4-18,61,44,28,20,8,-4,52,27,8,30.19,30.06,19,1,19,0.00
2013-4-19,70,50,28,21,9,-4,50,23,6,30.22,29.93,10,1,10,0.00
2013-4-20,75,56,36,22,12,-11,46,21,4,29.93,29.79,16,2,16,0.00
2013-4-21,79,59,37,25,15,1,47,22,5,29.98,29.84,13,1,13,0.00
2013-4-22,80,64,45,31,20,15,39,21,9,29.87,29.64,18,2,18,0.00
2013-4-23,73,60,43,29,11,-37,40,18,1,29.79,29.60,18,2,18,0.00
2013-4-24,74,61,37,28,18,0,43,20,12,29.85,29.76,17,2,17,0.00
2013-4-25,67,56,42,42,27,20,58,35,19,29.94,29.74,26,3,26,0.01
2013-4-26,75,58,37,36,29,15,75,38,12,30.05,29.94,12,1,12,0.00
2013-4-27,80,61,40,29,16,-3,52,23,4,30.04,29.85,11,1,11,0.00
2013-4-28,84,65,42,31,14,-7,39,17,3,29.88,29.67,9,0,10,0.00
2013-4-29,86,69,47,36,19,1,42,18,4,29.71,29.52,16,1,16,0.00
2013-4-30,82,70,51,34,18,3,40,15,5,29.60,29.51,23,3,23,0.00
2013-5-1,81,65,47,36,16,-20,41,17,3,29.98,29.60,12,2,13,0.00
2013-5-2,72,56,39,23,8,-8,34,16,5,30.12,29.98,17,2,17,0.00
2013-5-3,80,58,33,31,10,-10,43,19,3,30.08,29.76,14,1,14,0.00
2013-5-4,78,62,41,31,17,4,53,20,6,29.77,29.58,15,2,15,0.01
2013-5-5,72,62,54,31,24,12,35,24,13,29.71,29.63,21,3,21,0.00
2013-5-6,66,57,48,42,34,18,66,42,22,29.80,29.70,19,3,19,0.00
2013-5-7,65,51,41,44,38,29,84,63,28,29.88,29.75,19,3,19,0.09
2013-5-8,68,53,35,39,32,27,87,50,23,29.97,29.87,10,1,10,0.01
2013-5-9,68,55,41,39,34,30,70,47,27,29.94,29.84,16,1,16,0.00
2013-5-10,77,58,38,40,33,23,80,45,14,30.02,29.89,15,1,15,0.00
2013-5-11,79,62,43,40,33,24,69,37,14,30.04,29.95,18,2,18,0.00
2013-5-12,84,66,46,40,30,21,56,30,10,30.07,29.85,11,0,11,0.00
2013-5-13,88,71,48,40,30,21,52,25,9,29.95,29.76,13,1,13,0.00
2013-5-14,86,70,58,39,30,25,43,24,11,29.80,29.65,13,1,13,0.00
2013-5-15,82,71,55,35,18,2,43,15,6,29.75,29.65,20,3,20,0.00
2013-5-16,81,67,48,38,24,10,45,22,8,29.74,29.63,20,3,20,0.01
2013-5-17,76,64,49,37,29,19,53,27,14,29.73,29.63,19,3,19,0.01
2013-5-18,76,63,46,40,32,23,61,34,14,29.77,29.69,18,2,18,0.00
2013-5-19,79,67,54,37,28,19,43,25,12,29.74,29.61,16,2,16,0.00
2013-5-20,75,61,46,33,24,13,49,27,11,29.83,29.73,15,2,15,0.00
2013-5-21,83,66,44,39,25,15,59,26,8,29.85,29.65,15,1,15,0.00
2013-5-22,82,70,50,33,25,17,47,20,9,29.65,29.51,22,4,22,0.00
2013-5-23,79,68,53,33,25,18,41,21,11,29.67,29.53,22,4,22,0.00
2013-5-24,80,65,45,34,21,10,40,20,8,29.77,29.67,21,3,21,0.00
2013-5-25,80,64,44,30,20,6,48,23,7,29.80,29.74,19,2,19,0.00
2013-5-26,79,64,43,33,22,10,44,22,9,29.81,29.74,15,2,15,0.00
2013-5-27,80,64,47,34,25,18,47,25,11,29.78,29.64,16,1,16,0.00
2013-5-28,78,65,48,39,31,22,47,29,18,29.65,29.47,18,2,18,0.00
2013-5-29,82,69,49,41,32,25,62,29,13,29.58,29.49,20,2,20,0.00
2013-5-30,63,59,55,44,40,33,60,50,32,29.61,29.57,6,0,6,0.01
2013-5-31,88,77,67,44,40,32,37,27,20,29.68,29.60,12,1,12,0.00
2013-6-1,94,75,52,40,26,12,40,19,5,29.73,29.58,11,0,11,0.00
2013-6-2,91,76,56,42,30,18,42,21,7,29.63,29.50,17,1,17,0.00
2013-6-3,89,74,56,40,30,19,45,22,9,29.65,29.52,22,2,22,0.00
2013-6-4,88,73,52,44,25,14,42,20,7,29.69,29.62,17,2,17,0.00
2013-6-5,92,74,53,42,27,17,42,21,7,29.73,29.58,11,1,11,0.00
2013-6-6,96,79,55,42,25,2,41,17,3,29.65,29.51,12,1,12,0.01
2013-6-7,98,80,57,44,25,2,45,17,3,29.61,29.46,15,1,15,0.00
2013-6-8,97,83,62,48,26,12,39,15,5,29.59,29.51,15,2,15,0.00
2013-6-9,96,81,60,44,26,8,42,17,5,29.66,29.58,14,1,14,0.00
2013-6-10,92,78,58,44,17,-11,44,14,2,29.68,29.60,19,2,19,0.01
2013-6-11,93,79,57,41,27,10,43,18,5,29.72,29.64,16,1,16,0.00
2013-6-12,96,80,58,40,28,18,36,17,7,29.75,29.66,17,1,17,0.00
2013-6-13,92,79,65,46,36,27,38,23,10,29.69,29.59,17,2,17,0.00
2013-6-14,92,77,58,44,33,25,47,23,10,29.68,29.57,13,1,13,0.00
2013-6-15,89,76,60,47,34,24,50,24,10,29.71,29.62,18,2,18,0.00
2013-6-16,91,77,57,47,30,20,50,21,9,29.76,29.67,18,2,18,0.00
2013-6-17,90,75,56,46,20,-10,45,17,2,29.74,29.66,18,2,18,0.00
2013-6-18,89,74,55,36,20,0,35,15,5,29.69,29.58,19,3,19,0.00
2013-6-19,88,76,58,34,20,6,35,14,5,29.58,29.52,18,3,18,0.00
2013-6-20,87,85,66,37,23,15,34,11,8,29.64,29.58,18,4,18,0.01
2013-6-21,86,80,68,37,23,10,27,13,6,29.68,29.61,18,4,18,0.00
2013-6-22,88,73,54,39,27,14,38,20,7,29.68,29.58,16,2,16,0.00
2013-6-23,87,73,53,39,26,10,41,20,6,29.64,29.53,18,2,18,0.00
2013-6-24,82,73,60,39,30,21,38,22,12,29.68,29.53,17,4,17,0.00
2013-6-25,89,73,53,41,28,22,39,21,10,29.79,29.68,13,2,13,0.01
2013-6-26,93,76,56,43,31,11,42,21,6,29.83,29.75,19,2,19,0.00
2013-6-27,98,80,58,50,36,27,51,25,10,29.88,29.74,9,0,9,0.00
2013-6-28,105,82,62,48,37,22,41,23,6,29.78,29.63,16,1,16,0.00
2013-6-29,102,84,66,51,40,30,42,24,9,29.69,29.55,17,1,17,0.01
2013-6-30,102,81,68,58,46,35,54,32,11,29.63,29.51,25,1,25,0.02
2013-7-1,98,83,69,56,50,41,59,35,15,29.70,29.55,16,1,16,0.00
2013-7-2,95,80,69,58,52,43,63,40,21,29.76,29.60,17,2,17,0.06
2013-7-3,96,80,66,57,51,45,61,38,19,29.68,29.55,25,2,25,0.00
2013-7-4,94,80,63,57,50,46,66,39,19,29.65,29.52,16,1,16,0.02
2013-7-5,92,80,68,60,53,48,62,41,23,29.62,29.51,20,3,20,0.03
2013-7-6,91,76,64,61,55,51,72,50,28,29.64,29.53,14,2,14,0.00
2013-7-7,96,79,59,60,49,36,75,41,14,29.69,29.56,16,1,16,0.00
2013-7-8,97,82,67,54,44,36,51,28,14,29.72,29.60,17,1,17,0.01
2013-7-9,98,80,63,58,46,36,54,33,12,29.80,29.65,10,1,12,0.00
2013-7-10,73,72,71,54,52,50,53,48,45,29.71,29.70,1,0,1,0.00
2013-7-11,83,80,77,64,60,58,63,51,46,29.70,29.66,15,3,15,0.02
2013-7-15,72,67,64,62,60,58,89,80,65,29.70,29.61,8,0,8,0.09
2013-7-16,81,69,62,65,60,57,89,76,50,29.86,29.70,13,1,13,0.02
2013-7-17,78,67,60,63,60,57,95,78,53,29.90,29.80,24,1,24,0.00
2013-7-18,88,74,63,66,59,54,84,63,33,29.83,29.70,14,0,14,0.02
2013-7-19,90,75,63,64,60,54,84,61,32,29.77,29.63,14,1,14,0.00
2013-7-20,88,73,65,65,62,56,91,71,36,29.69,29.57,18,1,18,0.11
2013-7-21,78,70,63,66,63,59,92,80,61,29.77,29.61,11,1,11,0.04
2013-7-22,84,71,64,66,62,53,93,77,41,29.82,29.72,24,1,24,0.69
2013-7-23,86,73,61,69,62,58,94,71,43,29.82,29.70,8,0,8,0.03
2013-7-24,92,77,62,64,60,54,89,59,29,29.75,29.61,16,1,16,0.00
2013-7-25,88,72,62,68,63,59,94,74,43,29.83,29.67,27,1,27,1.29
2013-7-26,85,69,62,65,62,56,95,81,44,29.95,29.83,22,1,22,0.38
2013-7-27,86,70,62,68,62,59,93,76,45,29.89,29.67,14,1,14,0.35
2013-7-28,88,73,60,64,59,52,94,67,30,29.73,29.63,13,1,13,0.12
2013-7-29,87,73,60,58,53,46,82,52,29,29.84,29.68,14,1,14,0.00
2013-7-30,91,77,62,57,51,47,62,41,24,29.92,29.80,13,1,13,0.00
2013-7-31,94,78,63,58,52,47,65,43,23,29.88,29.73,13,1,13,0.00
2013-8-1,89,79,67,61,56,53,66,46,31,29.76,29.62,16,2,16,0.00
2013-8-2,90,78,64,62,52,42,77,45,21,29.73,29.66,15,2,15,0.00
2013-8-3,90,78,62,62,52,46,79,44,23,29.77,29.68,13,1,13,0.00
2013-8-4,89,77,65,58,48,37,63,39,18,29.79,29.70,12,1,12,0.00
2013-8-5,89,76,59,51,43,35,51,33,18,29.81,29.69,17,2,17,0.00
2013-8-6,74,70,66,62,55,47,80,59,39,29.81,29.68,8,1,11,0.03
2013-8-7,87,74,59,58,50,40,82,47,23,29.86,29.72,12,1,12,0.00
2013-8-8,90,74,56,47,36,27,56,29,12,29.78,29.67,12,1,12,0.00
2013-8-9,89,74,56,45,35,29,44,26,13,29.75,29.68,18,2,18,0.00
2013-8-10,88,74,59,48,34,26,55,25,12,29.82,29.73,16,2,16,0.00
2013-8-11,89,73,56,51,39,32,45,30,18,29.83,29.68,15,2,15,0.00
2013-8-12,92,75,58,56,42,32,66,33,16,29.78,29.68,20,1,20,0.00
2013-8-13,90,70,58,42,36,31,45,30,14,29.81,29.71,10,0,10,0.00
2013-8-14,93,80,59,51,40,28,50,26,15,29.82,29.67,15,1,15,0.00
2013-8-15,92,76,65,62,54,45,88,49,23,29.79,29.71,13,0,13,0.06
2013-8-16,90,75,61,58,53,46,71,49,27,29.81,29.73,14,0,14,0.00
2013-8-17,90,73,63,61,56,49,89,58,27,29.86,29.71,15,1,15,0.10
2013-8-18,92,74,60,60,56,49,87,57,24,29.83,29.74,13,0,13,0.00
2013-8-19,92,74,63,61,56,44,78,56,23,29.83,29.70,19,1,19,0.01
2013-8-20,94,77,57,60,52,43,83,47,18,29.79,29.65,14,1,14,0.00
2013-8-21,78,72,67,60,55,50,68,57,38,29.78,29.69,17,1,17,0.00
2013-8-26,80,71,62,66,63,60,95,76,58,29.91,29.75,15,2,15,0.86
2013-8-27,86,70,62,66,61,54,96,76,36,29.83,29.70,14,1,14,0.07
2013-8-28,90,72,57,66,58,52,92,67,32,29.79,29.71,19,1,19,0.00
2013-8-29,84,74,68,66,64,61,87,72,48,29.89,29.79,10,1,10,0.01
2013-8-31,77,70,63,69,63,59,96,80,56,29.85,29.75,8,0,8,0.04
2013-9-1,85,70,60,67,62,58,95,80,47,29.83,29.71,16,0,17,0.08
2013-9-2,85,72,58,67,61,56,94,71,39,29.82,29.70,10,0,10,0.01
2013-9-3,90,73,61,63,58,47,86,62,31,29.81,29.70,16,1,16,0.00
2013-9-4,90,74,63,62,57,53,82,60,30,29.83,29.71,13,1,13,0.00
2013-9-5,89,75,58,63,53,43,86,52,21,29.84,29.74,18,2,18,0.00
2013-9-6,90,76,65,61,54,48,82,50,26,29.78,29.65,24,1,24,0.06
2013-9-7,82,70,60,62,58,54,86,68,42,29.80,29.71,10,0,10,0.00
2013-9-8,69,64,60,62,60,57,95,87,75,29.76,29.66,14,1,14,0.32
2013-9-9,66,61,58,61,58,56,94,90,75,29.73,29.64,14,1,14,0.14
2013-9-10,68,60,56,61,57,53,96,90,69,29.81,29.69,15,1,15,1.43
2013-9-11,72,61,54,62,57,52,97,86,62,29.91,29.80,13,1,13,0.02
2013-9-12,82,68,52,60,52,43,95,62,26,29.89,29.72,8,0,8,0.01
2013-9-13,84,68,52,58,53,49,89,61,30,29.75,29.56,8,0,8,0.00
2013-9-14,86,67,55,58,53,46,85,65,27,29.66,29.55,13,0,13,0.03
2013-9-15,87,69,53,61,52,46,90,60,25,29.75,29.66,10,0,10,0.00
2013-9-16,86,71,54,60,53,45,83,56,25,29.77,29.64,14,1,14,0.00
2013-9-17,87,72,59,60,54,46,82,56,26,29.70,29.52,19,2,19,0.00
2013-9-18,84,70,56,54,41,26,70,41,14,29.63,29.54,20,2,20,0.00
2013-9-19,82,66,48,48,36,23,70,38,12,29.72,29.63,17,2,17,0.00
2013-9-20,86,68,47,50,42,33,62,41,22,29.75,29.67,14,1,14,0.00
2013-9-21,82,70,56,56,49,46,76,51,33,29.71,29.52,18,2,18,0.00
2013-9-22,72,64,48,50,35,18,60,37,14,29.69,29.42,22,3,22,0.00
2013-9-23,80,61,42,41,34,25,71,42,14,29.88,29.68,6,0,6,0.00
2013-9-24,79,59,45,37,34,29,66,41,17,29.88,29.71,9,0,9,0.00
2013-9-25,76,65,50,45,37,32,59,37,22,29.71,29.50,20,4,20,0.00
2013-9-26,72,63,54,44,36,25,61,38,23,29.61,29.45,28,5,28,0.00
2013-9-27,68,56,43,30,24,14,51,32,14,29.95,29.61,10,1,10,0.00
2013-9-28,75,55,34,33,25,13,67,36,10,30.09,29.94,8,0,8,0.00
2013-9-29,81,60,41,43,31,25,60,36,16,30.06,29.90,16,0,16,0.00
2013-9-30,82,62,42,38,30,20,60,34,12,29.93,29.78,9,0,9,0.00
2013-10-1,80,61,42,40,32,26,62,37,14,29.87,29.77,12,1,12,0.00
2013-10-2,77,60,46,44,34,27,69,42,17,29.85,29.74,13,1,13,0.00
2013-10-3,75,61,48,46,36,28,68,43,19,29.76,29.60,19,2,19,0.00
2013-10-4,50,45,41,33,22,18,55,41,30,30.06,29.69,8,1,8,0.00
2013-10-5,69,51,32,30,22,15,58,35,16,30.19,30.06,9,0,9,0.00
2013-10-6,77,54,32,27,20,2,65,33,6,30.20,30.04,7,0,7,0.00
2013-10-7,77,57,35,36,24,17,54,31,12,30.06,29.85,18,2,18,0.00
2013-10-8,73,58,42,34,28,23,59,34,17,29.85,29.63,19,2,19,0.00
2013-10-9,67,58,52,43,37,30,65,47,29,29.63,29.50,23,6,23,0.00
2013-10-10,53,44,36,40,36,32,92,74,54,29.97,29.52,12,1,12,0.27
2013-10-11,66,48,32,41,35,29,92,65,28,30.05,29.92,8,0,8,0.01
2013-10-12,71,52,33,40,35,30,90,57,26,29.97,29.83,18,1,18,0.00
2013-10-13,67,54,40,38,33,27,76,48,27,29.91,29.77,18,2,18,0.00
2013-10-14,67,51,35,35,29,18,76,47,16,30.00,29.90,9,0,9,0.00
2013-10-15,68,50,32,35,27,16,79,45,16,29.95,29.82,9,1,9,0.00
2013-10-16,66,49,32,32,26,15,76,45,15,30.06,29.95,8,0,8,0.00
2013-10-17,71,51,31,31,24,6,72,41,8,30.06,29.88,11,0,11,0.00
2013-10-18,72,52,34,32,22,11,66,37,10,30.03,29.92,7,0,7,0.00
2013-10-19,74,52,33,29,21,10,60,36,9,30.07,29.93,10,0,10,0.00
2013-10-20,76,54,34,31,20,8,61,31,9,29.98,29.80,11,0,11,0.00
2013-10-21,75,54,36,30,22,14,54,32,10,30.01,29.89,8,0,8,0.00
2013-10-22,76,54,34,31,23,15,63,35,10,30.06,29.92,9,0,9,0.00
2013-10-23,75,59,38,30,24,16,53,29,13,29.97,29.85,17,3,17,0.00
2013-10-24,75,57,43,36,26,18,58,33,13,29.95,29.81,20,2,20,0.00
2013-10-25,74,54,37,32,26,20,59,37,14,30.06,29.94,9,0,9,0.00
2013-10-26,73,55,37,38,31,28,71,43,20,30.13,30.00,13,1,13,0.00
2013-10-27,75,57,39,40,30,19,70,40,14,30.01,29.65,14,2,14,0.00
2013-10-28,63,56,51,36,31,26,53,38,31,29.65,29.53,24,6,24,0.00
2013-10-29,56,46,38,38,34,30,78,62,41,29.87,29.65,15,2,15,0.00
2013-10-30,58,44,31,35,29,23,87,59,28,30.04,29.86,11,0,11,0.00
2013-10-31,63,44,28,30,25,22,79,51,24,30.14,30.02,8,0,8,0.00
2013-11-1,67,47,30,31,25,22,74,46,20,30.19,30.07,11,0,11,0.00
2013-11-2,71,50,30,29,20,11,66,35,13,30.12,29.85,20,2,20,0.00
2013-11-3,67,52,35,31,25,17,58,37,23,29.85,29.69,15,1,15,0.00
2013-11-4,63,47,33,33,25,21,63,44,26,29.82,29.68,17,1,17,0.00
2013-11-5,58,44,32,32,24,11,81,50,19,30.20,29.81,10,1,10,0.00
2013-11-6,55,36,23,18,12,5,67,41,14,30.37,30.20,5,0,5,0.00
2013-11-7,67,47,28,20,11,5,44,26,9,30.32,30.11,14,2,14,0.00
2013-11-8,71,50,32,29,20,10,53,34,17,30.12,29.95,7,0,7,0.00
2013-11-9,71,50,32,34,28,23,69,45,21,30.10,30.00,9,0,9,0.00
2013-11-10,68,50,35,39,32,26,74,53,28,30.16,30.05,3,0,3,0.00
2013-11-11,73,51,34,34,28,20,79,46,15,30.18,30.06,11,0,11,0.00
2013-11-12,74,52,34,30,23,18,56,35,13,30.28,30.14,10,0,10,0.00
2013-11-13,72,55,41,39,31,24,65,43,21,30.18,29.93,10,0,10,0.00
2013-11-14,68,50,37,34,31,27,69,50,23,30.00,29.76,7,0,7,0.00
2013-11-15,64,52,41,43,39,33,88,62,42,29.76,29.49,19,3,19,0.13
2013-11-16,55,46,38,43,39,34,95,77,55,29.85,29.58,18,2,18,0.00
2013-11-17,56,43,31,42,35,28,93,75,51,30.11,29.85,19,4,19,0.01
2013-11-18,66,46,31,44,35,27,91,68,39,30.16,30.00,8,0,8,0.00
2013-11-19,64,51,37,45,39,33,87,66,39,30.02,29.80,13,1,13,0.00
2013-11-20,55,49,41,44,40,37,88,73,52,29.85,29.74,9,1,9,0.00
2013-11-21,52,47,43,44,41,34,89,79,57,29.88,29.78,15,2,15,0.05
2013-11-22,44,41,40,42,40,38,96,94,90,29.94,29.78,17,0,17,1.04
2013-11-23,43,40,36,41,37,34,94,90,85,30.05,29.89,18,5,18,0.16
2013-11-24,43,36,30,39,34,28,95,92,82,30.18,30.03,8,1,8,0.11
2013-11-25,54,39,28,38,32,26,96,78,48,30.28,30.17,7,0,7,0.02
2013-11-26,58,42,28,33,29,25,91,65,32,30.34,30.20,13,2,13,0.00
2013-11-27,52,42,31,31,27,24,86,59,37,30.23,30.01,15,3,15,0.00
2013-11-28,57,40,27,34,27,22,85,62,33,30.16,30.01,19,2,19,0.00
2013-11-29,58,40,28,36,30,23,86,68,41,30.24,30.12,17,1,17,0.00
2013-11-30,59,42,28,38,32,25,92,72,40,30.26,30.11,5,0,5,0.00
2013-12-1,57,40,31,36,31,26,90,72,41,30.28,30.18,7,0,7,0.00
2013-12-2,66,46,29,35,27,15,83,52,22,30.24,29.85,6,0,6,0.00
2013-12-3,57,47,40,36,29,15,70,50,25,29.85,29.56,17,3,17,0.00
2013-12-4,47,38,24,39,30,17,93,76,62,29.86,29.49,18,2,18,0.14
2013-12-5,40,27,16,20,14,9,88,62,28,30.14,29.85,9,0,9,0.01
2013-12-6,39,25,13,17,12,7,81,61,28,30.26,30.14,9,0,9,0.00
2013-12-7,37,29,18,30,22,13,89,75,58,30.17,29.93,19,3,19,0.00
2013-12-8,39,32,21,31,24,12,91,73,54,30.12,29.95,7,0,8,0.04
2013-12-9,38,24,14,12,7,2,73,51,24,30.52,30.11,9,1,9,0.00
2013-12-10,44,25,10,12,7,2,72,51,21,30.52,30.31,6,0,6,0.00
2013-12-11,49,33,15,18,14,10,77,50,23,30.44,30.35,5,0,5,0.00
2013-12-12,57,36,23,30,23,17,81,62,33,30.42,30.15,6,0,6,0.00
2013-12-13,57,39,26,34,26,19,89,65,32,30.22,30.04,9,0,9,0.00
2013-12-14,53,35,23,22,19,16,79,54,26,30.45,30.22,10,0,10,0.00
2013-12-15,61,39,24,25,20,16,76,52,22,30.46,30.30,4,0,4,0.00
2013-12-16,66,43,28,29,23,19,74,50,18,30.35,30.23,4,0,4,0.00
2013-12-17,64,42,28,31,25,21,77,55,21,30.34,30.19,3,0,3,0.00
2013-12-18,62,44,30,34,27,22,76,55,28,30.19,29.78,8,0,8,0.00
2013-12-19,53,42,33,36,30,23,93,64,35,29.78,29.58,18,3,18,0.15
2013-12-20,44,37,34,37,33,29,96,85,65,29.78,29.63,8,1,8,0.05
2013-12-21,50,36,26,32,27,22,93,73,45,30.04,29.74,10,0,10,0.01
2013-12-22,51,34,23,28,23,20,89,67,32,30.36,30.04,5,0,5,0.00
2013-12-23,52,35,21,26,23,18,87,64,32,30.48,30.35,4,0,4,0.00
2013-12-24,61,40,23,30,24,19,86,58,23,30.40,30.20,6,0,6,0.00
2013-12-25,56,36,22,27,17,7,85,53,15,30.38,30.26,6,0,6,0.00
2013-12-26,58,36,20,18,13,8,71,45,15,30.41,30.27,4,0,4,0.00
2013-12-27,62,40,24,23,18,12,67,46,19,30.35,30.18,8,0,8,0.00
2013-12-28,52,37,27,30,23,19,76,58,32,30.20,29.98,4,0,4,0.00
2013-12-29,53,38,26,23,18,12,75,47,24,30.25,30.02,10,1,10,0.00
2013-12-30,59,36,20,19,13,7,69,44,13,30.36,30.24,4,0,4,0.00
2013-12-31,61,40,23,23,18,15,74,47,18,30.33,30.15,5,0,5,0.00
2014-1-1,62,42,27,25,20,16,69,46,20,30.23,30.11,8,0,8,0.00
2014-1-2,61,39,23,23,17,12,72,46,15,30.27,30.14,9,0,9,0.00